QPF
0.00 0.00 0.00 0.01 0.13 0.14 0.04 0.00 0.00 0.00 0.00 0.00 0.00 0.00 0.00 0.00 0.02 0.13 0.05 0.00 0.00 0.00 0.00 0.00 0.00 0.00 0.00 0.00 0.01 0.01 0.01 0.01 0.01 0.01 0.01 0.01 0.01 0.01 0.01 0.01 0.01 0.01 0.01 0.01 0.01 0.01 0.02 0.02 0.02
0.00 0.00 0.00 0.02 0.11 0.06 0.01 0.00 0.00 0.00 0.00 0.00 0.00 0.00 0.00 0.01 0.00 0.01 0.00 0.00 0.00 0.00 0.00 0.00 0.00 0.00 0.00 0.00 0.00 0.00 0.00 0.01 0.01 0.01 0.01 0.01 0.01 0.02 0.01 0.01 0.01 0.01 0.01 0.01 0.02 0.01 0.02 0.02 0.02
0.00 0.00 0.00 0.03 0.03 0.01 0.00 0.00 0.00 0.00 0.00 0.00 0.00 0.00 0.00 0.01 0.00 0.00 0.00 0.00 0.00 0.01 0.00 0.00 0.00 0.01 0.00 0.00 0.00 0.01 0.01 0.01 0.01 0.01 0.01 0.01 0.01 0.02 0.02 0.01 0.01 0.01 0.01 0.01 0.02 0.02 0.01 0.02 0.02
0.00 0.00 0.02 0.02 0.00 0.00 0.00 0.00 0.00 0.00 0.00 0.00 0.00 0.01 0.01 0.00 0.00 0.00 0.00 0.00 0.01 0.02 0.01 0.00 0.01 0.01 0.00 0.00 0.00 0.00 0.01 0.01 0.01 0.01 0.01 0.02 0.02 0.01 0.01 0.01 0.01 0.01 0.01 0.01 0.02 0.02 0.01 0.02 0.02
0.00 0.01 0.05 0.02 0.00 0.00 0.00 0.00 0.00 0.00 0.00 0.00 0.00 0.01 0.02 0.00 0.00 0.00 0.00 0.00 0.01 0.02 0.02 0.01 0.01 0.02 0.01 0.01 0.01 0.01 0.01 0.01 0.01 0.01 0.01 0.02 0.02 0.02 0.01 0.01 0.01 0.01 0.01 0.02 0.03 0.03 0.01 0.01 0.02
0.00 0.00 0.01 0.01 0.00 0.00 0.00 0.00 0.00 0.00 0.00 0.00 0.00 0.01 0.01 0.01 0.00 0.00 0.00 0.00 0.01 0.02 0.03 0.04 0.02 0.02 0.02 0.01 0.01 0.01 0.01 0.01 0.01 0.01 0.01 0.01 0.02 0.02 0.01 0.01 0.01 0.01 0.01 0.01 0.02 0.02 0.01 0.01 0.02
0.00 0.00 0.00 0.00 0.00 0.00 0.00 0.00 0.00 0.00 0.00 0.00 0.00 0.01 0.03 0.02 0.00 0.00 0.00 0.01 0.02 0.03 0.03 0.03 0.02 0.02 0.02 0.02 0.02 0.02 0.01 0.01 0.01 0.01 0.01 0.01 0.02 0.01 0.01 0.02 0.01 0.01 0.02 0.02 0.02 0.02 0.02 0.02 0.01
0.00 0.00 0.01 0.00 0.00 0.00 0.00 0.00 0.00 0.00 0.00 0.00 0.00 0.02 0.05 0.02 0.00 0.00 0.01 0.02 0.04 0.05 0.06 0.04 0.03 0.03 0.02 0.01 0.02 0.02 0.02 0.01 0.01 0.01 0.01 0.01 0.01 0.01 0.01 0.01 0.01 0.01 0.02 0.02 0.02 0.01 0.01 0.01 0.01
0.00 0.00 0.01 0.00 0.00 0.00 0.00 0.00 0.00 0.00 0.00 0.01 0.03 0.06 0.05 0.01 0.00 0.00 0.02 0.05 0.09 0.11 0.11 0.09 0.07 0.05 0.02 0.02 0.01 0.02 0.03 0.02 0.02 0.02 0.01 0.02 0.05 0.04 0.04 0.03 0.01 0.01 0.01 0.01 0.00 0.00 0.01 0.01 0.01
0.00 0.00 0.00 0.00 0.00 0.00 0.00 0.00 0.00 0.00 0.00 0.01 0.03 0.06 0.03 0.01 0.01 0.03 0.05 0.07 0.10 0.13 0.11 0.12 0.12 0.09 0.06 0.04 0.05 0.05 0.05 0.04 0.05 0.06 0.03 0.07 0.11 0.11 0.06 0.03 0.01 0.01 0.01 0.01 0.00 0.01 0.01 0.01 0.02
0.00 0.00 0.00 0.00 0.00 0.00 0.00 0.00 0.00 0.00 0.00 0.00 0.01 0.02 0.01 0.01 0.02 0.05 0.07 0.08 0.11 0.14 0.13 0.10 0.10 0.10 0.11 0.14 0.14 0.12 0.09 0.08 0.11 0.10 0.07 0.12 0.10 0.08 0.05 0.04 0.03 0.02 0.02 0.03 0.02 0.02 0.02 0.03 0.04
0.00 0.00 0.00 0.00 0.00 0.00 0.00 0.00 0.00 0.00 0.00 0.00 0.00 0.00 0.00 0.01 0.02 0.04 0.07 0.10 0.13 0.15 0.14 0.11 0.11 0.17 0.17 0.15 0.19 0.17 0.12 0.12 0.13 0.13 0.11 0.11 0.12 0.10 0.08 0.08 0.06 0.06 0.06 0.07 0.06 0.05 0.04 0.04 0.03
0.00 0.00 0.00 0.00 0.00 0.00 0.00 0.00 0.00 0.01 0.00 0.00 0.00 0.00 0.01 0.02 0.04 0.05 0.08 0.10 0.12 0.15 0.14 0.13 0.13 0.16 0.18 0.17 0.17 0.15 0.12 0.11 0.11 0.12 0.13 0.10 0.09 0.10 0.08 0.06 0.06 0.06 0.05 0.05 0.05 0.05 0.05 0.04 0.03
0.00 0.00 0.00 0.00 0.00 0.00 0.00 0.00 0.02 0.03 0.00 0.00 0.00 0.00 0.01 0.04 0.04 0.11 0.16 0.11 0.14 0.18 0.16 0.16 0.16 0.18 0.18 0.16 0.17 0.18 0.11 0.10 0.09 0.09 0.08 0.08 0.09 0.08 0.08 0.06 0.05 0.06 0.05 0.05 0.04 0.04 0.04 0.03 0.03
0.00 0.00 0.00 0.00 0.00 0.00 0.00 0.00 0.02 0.02 0.00 0.00 0.00 0.00 0.02 0.04 0.04 0.08 0.10 0.11 0.18 0.21 0.17 0.16 0.16 0.17 0.19 0.19 0.17 0.16 0.11 0.07 0.10 0.09 0.07 0.08 0.08 0.08 0.06 0.06 0.05 0.05 0.05 0.05 0.05 0.04 0.03 0.02 0.02
0.00 0.00 0.00 0.00 0.00 0.00 0.00 0.00 0.01 0.00 0.00 0.00 0.00 0.01 0.02 0.01 0.05 0.08 0.10 0.12 0.17 0.22 0.20 0.21 0.17 0.17 0.19 0.20 0.16 0.13 0.10 0.08 0.11 0.10 0.07 0.07 0.08 0.06 0.06 0.05 0.04 0.04 0.04 0.05 0.05 0.03 0.02 0.03 0.03
0.00 0.00 0.00 0.00 0.00 0.00 0.00 0.00 0.00 0.00 0.00 0.00 0.00 0.01 0.01 0.01 0.04 0.05 0.06 0.11 0.16 0.20 0.25 0.30 0.27 0.25 0.19 0.17 0.15 0.14 0.12 0.10 0.09 0.09 0.08 0.06 0.06 0.05 0.05 0.05 0.04 0.02 0.03 0.03 0.02 0.03 0.03 0.03 0.02
0.00 0.00 0.00 0.00 0.00 0.00 0.00 0.00 0.00 0.00 0.00 0.00 0.00 0.00 0.01 0.01 0.05 0.05 0.05 0.07 0.14 0.17 0.21 0.29 0.33 0.29 0.23 0.18 0.17 0.18 0.15 0.11 0.09 0.10 0.08 0.06 0.05 0.03 0.04 0.03 0.03 0.02 0.03 0.03 0.03 0.05 0.04 0.03 0.01
0.00 0.00 0.00 0.00 0.00 0.00 0.00 0.00 0.00 0.00 0.00 0.00 0.00 0.00 0.01 0.01 0.03 0.03 0.04 0.05 0.10 0.14 0.16 0.19 0.25 0.25 0.20 0.18 0.15 0.14 0.14 0.11 0.08 0.07 0.06 0.04 0.03 0.04 0.04 0.02 0.03 0.03 0.05 0.04 0.04 0.04 0.04 0.02 0.01
0.00 0.00 0.00 0.00 0.00 0.00 0.00 0.00 0.00 0.01 0.00 0.00 0.00 0.00 0.01 0.01 0.02 0.03 0.03 0.05 0.09 0.12 0.13 0.14 0.17 0.20 0.16 0.15 0.15 0.14 0.13 0.09 0.07 0.05 0.05 0.03 0.03 0.04 0.02 0.02 0.02 0.02 0.03 0.04 0.05 0.05 0.06 0.04 0.02
0.00 0.00 0.00 0.00 0.00 0.00 0.00 0.00 0.00 0.01 0.01 0.01 0.00 0.00 0.00 0.01 0.02 0.03 0.03 0.05 0.10 0.14 0.14 0.14 0.15 0.17 0.17 0.18 0.16 0.14 0.13 0.10 0.08 0.06 0.04 0.03 0.03 0.02 0.01 0.01 0.01 0.02 0.02 0.03 0.04 0.04 0.05 0.04 0.03
0.00 0.00 0.00 0.00 0.00 0.00 0.01 0.01 0.01 0.02 0.02 0.01 0.01 0.00 0.01 0.00 0.01 0.02 0.02 0.04 0.06 0.10 0.14 0.15 0.14 0.17 0.17 0.15 0.12 0.09 0.08 0.08 0.06 0.05 0.04 0.05 0.02 0.02 0.01 0.01 0.01 0.02 0.02 0.03 0.02 0.03 0.03 0.03 0.02
0.00 0.00 0.00 0.00 0.00 0.00 0.01 0.01 0.01 0.01 0.03 0.02 0.01 0.01 0.01 0.00 0.00 0.01 0.01 0.02 0.05 0.08 0.11 0.14 0.16 0.18 0.18 0.16 0.14 0.13 0.10 0.09 0.08 0.08 0.07 0.07 0.04 0.02 0.02 0.01 0.02 0.02 0.02 0.03 0.02 0.02 0.02 0.01 0.01
0.00 0.00 0.00 0.00 0.01 0.04 0.03 0.01 0.02 0.02 0.03 0.01 0.00 0.01 0.00 0.00 0.00 0.01 0.02 0.03 0.05 0.06 0.10 0.13 0.17 0.18 0.18 0.16 0.14 0.13 0.12 0.12 0.11 0.10 0.08 0.07 0.04 0.03 0.02 0.02 0.02 0.01 0.02 0.03 0.02 0.01 0.02 0.02 0.01
0.00 0.00 0.00 0.01 0.05 0.07 0.04 0.02 0.01 0.00 0.00 0.00 0.00 0.00 0.00 0.00 0.01 0.02 0.03 0.03 0.04 0.05 0.08 0.11 0.14 0.17 0.17 0.14 0.11 0.11 0.12 0.10 0.09 0.09 0.06 0.06 0.04 0.03 0.02 0.03 0.02 0.02 0.02 0.02 0.02 0.02 0.02 0.01 0.01
0.00 0.00 0.00 0.01 0.04 0.07 0.07 0.06 0.04 0.01 0.00 0.00 0.00 0.00 0.00 0.00 0.01 0.03 0.03 0.02 0.03 0.05 0.07 0.10 0.13 0.16 0.18 0.14 0.13 0.10 0.08 0.08 0.09 0.09 0.06 0.05 0.03 0.02 0.02 0.02 0.02 0.02 0.02 0.01 0.01 0.01 0.01 0.02 0.02
0.00 0.00 0.00 0.00 0.00 0.02 0.03 0.04 0.04 0.02 0.01 0.00 0.00 0.00 0.00 0.00 0.00 0.02 0.03 0.02 0.02 0.04 0.05 0.08 0.10 0.14 0.16 0.15 0.12 0.09 0.06 0.07 0.10 0.09 0.06 0.04 0.03 0.03 0.02 0.01 0.01 0.01 0.01 0.01 0.01 0.01 0.01 0.01 0.01
0.00 0.00 0.00 0.00 0.00 0.01 0.04 0.05 0.07 0.04 0.01 0.01 0.00 0.00 0.00 0.00 0.00 0.01 0.02 0.02 0.02 0.03 0.04 0.06 0.07 0.09 0.12 0.15 0.12 0.09 0.10 0.07 0.09 0.09 0.08 0.07 0.06 0.05 0.04 0.02 0.02 0.03 0.02 0.02 0.02 0.02 0.01 0.01 0.01
0.00 0.00 0.00 0.00 0.00 0.00 0.03 0.07 0.08 0.04 0.03 0.02 0.00 0.00 0.00 0.00 0.00 0.00 0.00 0.01 0.02 0.02 0.03 0.04 0.04 0.05 0.07 0.09 0.10 0.11 0.10 0.08 0.08 0.09 0.07 0.07 0.07 0.07 0.05 0.04 0.03 0.03 0.04 0.03 0.04 0.03 0.01 0.01 0.01
0.00 0.00 0.00 0.00 0.00 0.00 0.01 0.04 0.05 0.04 0.04 0.01 0.00 0.00 0.00 0.00 0.00 0.00 0.00 0.00 0.01 0.02 0.02 0.02 0.03 0.03 0.05 0.06 0.07 0.08 0.11 0.11 0.09 0.08 0.06 0.06 0.07 0.07 0.05 0.04 0.04 0.03 0.03 0.04 0.04 0.02 0.02 0.02 0.02
MSLP
1006.42 1007.02 1007.66 1008.19 1008.52 1008.58 1008.38 1007.99 1007.51 1007.06 1006.75 1006.63 1006.69 1006.87 1007.12 1007.34 1007.47 1007.52 1007.51 1007.51 1007.59 1007.81 1008.20 1008.75 1009.40 1010.07 1010.68 1011.17 1011.51 1011.74 1011.88 1012.01 1012.17 1012.41 1012.72 1013.08 1013.44 1013.75 1013.98 1014.12 1014.17 1014.18 1014.18 1014.22 1014.31 1014.46 1014.65 1014.86 1015.06
1006.71 1007.43 1008.10 1008.59 1008.80 1008.68 1008.29 1007.70 1007.07 1006.51 1006.13 1005.97 1006.02 1006.20 1006.45 1006.67 1006.81 1006.88 1006.92 1006.99 1007.18 1007.55 1008.09 1008.79 1009.57 1010.33 1011.00 1011.52 1011.87 1012.08 1012.21 1012.31 1012.46 1012.68 1012.97 1013.31 1013.63 1013.91 1014.09 1014.19 1014.22 1014.21 1014.22 1014.29 1014.41 1014.59 1014.82 1015.04 1015.25
1007.16 1007.96 1008.64 1009.04 1009.10 1008.80 1008.20 1007.43 1006.65 1005.99 1005.55 1005.37 1005.41 1005.60 1005.85 1006.08 1006.24 1006.33 1006.42 1006.57 1006.87 1007.35 1008.02 1008.84 1009.73 1010.58 1011.30 1011.85 1012.21 1012.42 1012.53 1012.63 1012.77 1012.97 1013.24 1013.54 1013.83 1014.06 1014.21 1014.28 1014.30 1014.31 1014.35 1014.45 1014.62 1014.84 1015.08 1015.31 1015.51
1007.66 1008.50 1009.12 1009.41 1009.31 1008.82 1008.05 1007.14 1006.24 1005.52 1005.06 1004.88 1004.94 1005.15 1005.42 1005.66 1005.84 1005.96 1006.10 1006.32 1006.69 1007.27 1008.03 1008.94 1009.90 1010.79 1011.55 1012.11 1012.48 1012.69 1012.81 1012.91 1013.04 1013.24 1013.50 1013.78 1014.04 1014.24 1014.37 1014.44 1014.47 1014.51 1014.59 1014.74 1014.95 1015.19 1015.44 1015.66 1015.82
1008.09 1008.88 1009.41 1009.56 1009.29 1008.65 1007.75 1006.75 1005.81 1005.09 1004.65 1004.52 1004.62 1004.87 1005.17 1005.44 1005.65 1005.81 1005.98 1006.25 1006.69 1007.32 1008.14 1009.08 1010.06 1010.97 1011.73 1012.29 1012.65 1012.87 1013.00 1013.11 1013.26 1013.47 1013.72 1013.99 1014.24 1014.44 1014.57 1014.65 1014.72 1014.80 1014.93 1015.12 1015.36 1015.61 1015.85 1016.03 1016.14
1008.33 1009.02 1009.40 1009.39 1008.97 1008.22 1007.25 1006.23 1005.33 1004.67 1004.31 1004.26 1004.44 1004.76 1005.10 1005.41 1005.65 1005.84 1006.05 1006.36 1006.83 1007.49 1008.32 1009.26 1010.22 1011.10 1011.83 1012.36 1012.72 1012.94 1013.08 1013.22 1013.39 1013.62 1013.90 1014.18 1014.44 1014.65 1014.80 1014.90 1015.00 1015.12 1015.29 1015.51 1015.76 1016.00 1016.21 1016.34 1016.39
1008.32 1008.84 1009.04 1008.87 1008.34 1007.52 1006.55 1005.59 1004.78 1004.24 1004.02 1004.08 1004.35 1004.74 1005.15 1005.50 1005.77 1006.00 1006.25 1006.58 1007.07 1007.73 1008.54 1009.45 1010.35 1011.18 1011.85 1012.35 1012.68 1012.90 1013.06 1013.23 1013.45 1013.71 1014.02 1014.33 1014.61 1014.83 1015.00 1015.13 1015.25 1015.40 1015.59 1015.82 1016.06 1016.27 1016.43 1016.51 1016.50
1008.08 1008.40 1008.41 1008.09 1007.47 1006.64 1005.72 1004.87 1004.20 1003.82 1003.74 1003.93 1004.30 1004.76 1005.22 1005.61 1005.92 1006.19 1006.47 1006.83 1007.33 1007.98 1008.76 1009.61 1010.45 1011.20 1011.81 1012.26 1012.57 1012.79 1012.98 1013.18 1013.43 1013.74 1014.08 1014.42 1014.71 1014.96 1015.14 1015.28 1015.42 1015.57 1015.76 1015.97 1016.19 1016.37 1016.47 1016.50 1016.45
1007.67 1007.78 1007.61 1007.17 1006.50 1005.69 1004.87 1004.16 1003.65 1003.44 1003.50 1003.79 1004.25 1004.76 1005.25 1005.67 1006.02 1006.32 1006.64 1007.03 1007.54 1008.19 1008.93 1009.73 1010.50 1011.18 1011.72 1012.13 1012.42 1012.64 1012.84 1013.08 1013.37 1013.72 1014.09 1014.44 1014.75 1015.00 1015.19 1015.33 1015.46 1015.60 1015.77 1015.95 1016.13 1016.27 1016.35 1016.34 1016.26
1007.19 1007.10 1006.79 1006.26 1005.58 1004.83 1004.12 1003.55 1003.20 1003.12 1003.29 1003.66 1004.16 1004.69 1005.20 1005.64 1006.01 1006.35 1006.70 1007.13 1007.66 1008.30 1009.03 1009.78 1010.48 1011.10 1011.60 1011.97 1012.24 1012.47 1012.69 1012.96 1013.28 1013.65 1014.03 1014.40 1014.72 1014.96 1015.14 1015.27 1015.38 1015.50 1015.64 1015.79 1015.94 1016.06 1016.11 1016.10 1016.02
1006.74 1006.50 1006.08 1005.50 1004.84 1004.16 1003.56 1003.13 1002.90 1002.92 1003.15 1003.55 1004.04 1004.56 1005.06 1005.50 1005.88 1006.25 1006.65 1007.11 1007.67 1008.32 1009.03 1009.74 1010.41 1010.99 1011.45 1011.80 1012.06 1012.29 1012.53 1012.81 1013.15 1013.53 1013.92 1014.29 1014.60 1014.84 1015.01 1015.12 1015.22 1015.31 1015.43 1015.56 1015.69 1015.80 1015.86 1015.87 1015.84
1006.39 1006.06 1005.58 1004.99 1004.36 1003.76 1003.27 1002.92 1002.78 1002.84 1003.08 1003.46 1003.91 1004.39 1004.85 1005.27 1005.67 1006.07 1006.50 1007.00 1007.59 1008.24 1008.94 1009.64 1010.28 1010.83 1011.27 1011.61 1011.88 1012.12 1012.37 1012.66 1013.00 1013.38 1013.76 1014.12 1014.43 1014.66 1014.82 1014.93 1015.02 1015.10 1015.21 1015.34 1015.47 1015.60 1015.70 1015.76 1015.78
1006.21 1005.83 1005.32 1004.75 1004.17 1003.64 1003.22 1002.94 1002.82 1002.87 1003.08 1003.39 1003.78 1004.19 1004.61 1005.01 1005.41 1005.83 1006.30 1006.83 1007.44 1008.10 1008.80 1009.48 1010.10 1010.64 1011.08 1011.43 1011.71 1011.95 1012.21 1012.50 1012.83 1013.19 1013.57 1013.92 1014.22 1014.45 1014.62 1014.74 1014.84 1014.94 1015.06 1015.20 1015.36 1015.52 1015.68 1015.80 1015.90
1006.18 1005.78 1005.29 1004.76 1004.23 1003.76 1003.38 1003.11 1002.98 1002.99 1003.13 1003.36 1003.66 1004.01 1004.38 1004.77 1005.18 1005.62 1006.12 1006.67 1007.28 1007.94 1008.62 1009.29 1009.90 1010.44 1010.88 1011.24 1011.54 1011.80 1012.06 1012.34 1012.66 1013.00 1013.36 1013.69 1014.00 1014.25 1014.44 1014.60 1014.73 1014.86 1015.00 1015.18 1015.38 1015.59 1015.80 1015.99 1016.15
1006.27 1005.88 1005.41 1004.93 1004.45 1004.02 1003.66 1003.39 1003.22 1003.16 1003.20 1003.34 1003.57 1003.86 1004.20 1004.59 1005.01 1005.47 1005.99 1006.54 1007.15 1007.79 1008.44 1009.08 1009.68 1010.22 1010.68 1011.07 1011.39 1011.68 1011.95 1012.22 1012.52 1012.84 1013.17 1013.50 1013.80 1014.08 1014.31 1014.51 1014.69 1014.87 1015.05 1015.26 1015.50 1015.75 1016.01 1016.25 1016.48
1006.41 1006.04 1005.62 1005.18 1004.75 1004.35 1004.00 1003.70 1003.47 1003.33 1003.28 1003.33 1003.49 1003.74 1004.08 1004.47 1004.92 1005.40 1005.92 1006.47 1007.05 1007.65 1008.26 1008.87 1009.46 1010.00 1010.49 1010.91 1011.28 1011.60 1011.88 1012.16 1012.44 1012.73 1013.04 1013.35 1013.67 1013.96 1014.24 1014.49 1014.72 1014.95 1015.17 1015.41 1015.67 1015.94 1016.23 1016.51 1016.78
1006.55 1006.21 1005.83 1005.45 1005.08 1004.71 1004.36 1004.02 1003.72 1003.49 1003.35 1003.33 1003.44 1003.66 1004.00 1004.42 1004.89 1005.40 1005.92 1006.45 1006.98 1007.53 1008.08 1008.65 1009.22 1009.78 1010.30 1010.78 1011.20 1011.57 1011.89 1012.17 1012.44 1012.71 1012.99 1013.29 1013.60 1013.92 1014.23 1014.53 1014.80 1015.06 1015.31 1015.57 1015.83 1016.11 1016.40 1016.70 1016.98
1006.64 1006.33 1006.03 1005.72 1005.41 1005.08 1004.73 1004.35 1003.98 1003.66 1003.44 1003.34 1003.39 1003.60 1003.95 1004.39 1004.89 1005.41 1005.93 1006.42 1006.91 1007.39 1007.88 1008.41 1008.96 1009.54 1010.11 1010.65 1011.15 1011.59 1011.95 1012.27 1012.54 1012.79 1013.05 1013.32 1013.62 1013.94 1014.27 1014.59 1014.90 1015.18 1015.44 1015.69 1015.94 1016.20 1016.48 1016.77 1017.06
1006.64 1006.39 1006.18 1005.98 1005.76 1005.48 1005.14 1004.72 1004.28 1003.86 1003.54 1003.35 1003.35 1003.53 1003.88 1004.34 1004.86 1005.39 1005.90 1006.36 1006.78 1007.20 1007.63 1008.11 1008.65 1009.25 1009.88 1010.50 1011.09 1011.62 1012.06 1012.41 1012.70 1012.95 1013.18 1013.43 1013.71 1014.02 1014.35 1014.68 1015.00 1015.29 1015.54 1015.78 1016.00 1016.23 1016.48 1016.75 1017.03
1006.52 1006.38 1006.31 1006.25 1006.15 1005.94 1005.62 1005.17 1004.64 1004.12 1003.67 1003.38 1003.30 1003.43 1003.76 1004.22 1004.76 1005.29 1005.78 1006.21 1006.58 1006.92 1007.30 1007.73 1008.26 1008.88 1009.57 1010.29 1010.98 1011.61 1012.14 1012.56 1012.88 1013.14 1013.36 1013.59 1013.84 1014.12 1014.44 1014.77 1015.08 1015.37 1015.62 1015.84 1016.04 1016.23 1016.45 1016.69 1016.96
1006.30 1006.31 1006.42 1006.54 1006.59 1006.48 1006.18 1005.70 1005.08 1004.43 1003.84 1003.42 1003.23 1003.28 1003.57 1004.01 1004.54 1005.08 1005.55 1005.94 1006.27 1006.55 1006.87 1007.27 1007.78 1008.42 1009.17 1009.97 1010.77 1011.51 1012.14 1012.64 1013.01 1013.29 1013.52 1013.73 1013.96 1014.23 1014.52 1014.84 1015.16 1015.44 1015.69 1015.90 1016.08 1016.25 1016.44 1016.67 1016.93
1005.97 1006.19 1006.52 1006.86 1007.07 1007.07 1006.81 1006.29 1005.58 1004.78 1004.04 1003.46 1003.13 1003.08 1003.30 1003.71 1004.23 1004.75 1005.22 1005.59 1005.87 1006.11 1006.38 1006.73 1007.22 1007.87 1008.66 1009.53 1010.42 1011.26 1011.99 1012.58 1013.03 1013.35 1013.60 1013.81 1014.04 1014.29 1014.58 1014.89 1015.21 1015.51 1015.76 1015.98 1016.16 1016.33 1016.51 1016.72 1016.96
1005.58 1006.04 1006.62 1007.18 1007.57 1007.69 1007.46 1006.90 1006.09 1005.14 1004.22 1003.47 1002.99 1002.83 1002.96 1003.33 1003.83 1004.36 1004.83 1005.19 1005.45 1005.65 1005.87 1006.18 1006.64 1007.27 1008.07 1008.98 1009.94 1010.86 1011.69 1012.37 1012.89 1013.27 1013.56 1013.80 1014.03 1014.29 1014.59 1014.91 1015.24 1015.56 1015.84 1016.08 1016.29 1016.47 1016.64 1016.84 1017.08
1005.18 1005.87 1006.69 1007.47 1008.03 1008.24 1008.04 1007.44 1006.53 1005.44 1004.35 1003.44 1002.81 1002.54 1002.60 1002.93 1003.42 1003.96 1004.45 1004.82 1005.08 1005.27 1005.45 1005.70 1006.11 1006.70 1007.48 1008.39 1009.38 1010.35 1011.24 1012.00 1012.60 1013.05 1013.40 1013.68 1013.94 1014.22 1014.53 1014.88 1015.24 1015.59 1015.91 1016.19 1016.42 1016.62 1016.81 1017.00 1017.21
1004.80 1005.71 1006.74 1007.69 1008.38 1008.67 1008.48 1007.84 1006.84 1005.62 1004.40 1003.35 1002.61 1002.25 1002.25 1002.57 1003.07 1003.64 1004.16 1004.57 1004.85 1005.03 1005.19 1005.40 1005.74 1006.27 1006.98 1007.85 1008.82 1009.80 1010.73 1011.54 1012.20 1012.72 1013.13 1013.46 1013.77 1014.08 1014.43 1014.81 1015.20 1015.59 1015.95 1016.27 1016.53 1016.75 1016.94 1017.12 1017.31
1004.51 1005.58 1006.75 1007.82 1008.58 1008.90 1008.71 1008.03 1006.96 1005.66 1004.35 1003.21 1002.40 1001.99 1001.97 1002.30 1002.84 1003.46 1004.05 1004.51 1004.83 1005.03 1005.17 1005.34 1005.62 1006.06 1006.68 1007.47 1008.38 1009.33 1010.24 1011.07 1011.77 1012.34 1012.80 1013.19 1013.55 1013.91 1014.29 1014.70 1015.12 1015.54 1015.93 1016.27 1016.56 1016.79 1016.98 1017.15 1017.30
1004.34 1005.51 1006.74 1007.83 1008.60 1008.91 1008.70 1007.98 1006.87 1005.54 1004.19 1003.03 1002.20 1001.79 1001.80 1002.16 1002.76 1003.45 1004.12 1004.66 1005.05 1005.29 1005.44 1005.58 1005.79 1006.14 1006.66 1007.34 1008.15 1009.02 1009.89 1010.69 1011.40 1012.00 1012.50 1012.94 1013.34 1013.73 1014.15 1014.58 1015.02 1015.45 1015.85 1016.20 1016.49 1016.72 1016.90 1017.05 1017.17
1004.33 1005.50 1006.70 1007.74 1008.44 1008.70 1008.44 1007.70 1006.58 1005.26 1003.95 1002.83 1002.04 1001.68 1001.74 1002.16 1002.83 1003.61 1004.36 1005.00 1005.47 1005.77 1005.95 1006.08 1006.25 1006.52 1006.94 1007.50 1008.19 1008.95 1009.73 1010.48 1011.16 1011.76 1012.28 1012.75 1013.18 1013.60 1014.03 1014.47 1014.91 1015.34 1015.73 1016.06 1016.34 1016.55 1016.71 1016.83 1016.93
1004.48 1005.56 1006.64 1007.55 1008.13 1008.28 1007.96 1007.21 1006.13 1004.87 1003.64 1002.62 1001.93 1001.65 1001.79 1002.28 1003.02 1003.87 1004.71 1005.44 1005.99 1006.37 1006.61 1006.77 1006.93 1007.15 1007.48 1007.93 1008.49 1009.13 1009.80 1010.47 1011.10 1011.67 1012.19 1012.67 1013.12 1013.55 1013.99 1014.42 1014.85 1015.24 1015.60 1015.90 1016.15 1016.33 1016.46 1016.56 1016.65
1004.75 1005.68 1006.57 1007.29 1007.70 1007.73 1007.34 1006.59 1005.57 1004.42 1003.32 1002.43 1001.86 1001.69 1001.90 1002.45 1003.24 1004.15 1005.05 1005.85 1006.49 1006.96 1007.28 1007.50 1007.68 1007.89 1008.16 1008.53 1008.98 1009.51 1010.07 1010.64 1011.20 1011.74 1012.23 1012.71 1013.16 1013.60 1014.04 1014.46 1014.86 1015.22 1015.53 1015.79 1015.99 1016.14 1016.25 1016.34 1016.42
Thickness
5834 5835 5835 5827 5801 5786 5795 5820 5829 5826 5827 5835 5837 5830 5819 5809 5795 5781 5813 5825 5819 5808 5798 5792 5788 5786 5783 5781 5778 5776 5774 5772 5770 5768 5765 5764 5762 5761 5759 5758 5757 5755 5754 5753 5752 5751 5750 5749 5748
5840 5843 5837 5821 5792 5783 5800 5825 5825 5827 5833 5839 5837 5832 5821 5812 5820 5816 5819 5822 5816 5806 5797 5791 5786 5783 5781 5778 5776 5774 5772 5770 5768 5766 5764 5762 5761 5759 5757 5756 5755 5754 5753 5752 5751 5750 5748 5747 5747
5839 5845 5827 5812 5797 5802 5812 5830 5831 5837 5842 5837 5831 5831 5822 5813 5820 5820 5822 5822 5814 5804 5796 5787 5783 5780 5778 5776 5774 5772 5770 5768 5766 5764 5762 5761 5759 5758 5756 5754 5753 5752 5751 5750 5749 5748 5747 5746 5745
5840 5838 5824 5809 5807 5832 5837 5839 5842 5837 5837 5839 5831 5819 5819 5826 5828 5827 5825 5821 5810 5801 5793 5784 5780 5777 5775 5773 5772 5770 5768 5766 5765 5763 5761 5759 5758 5756 5754 5752 5751 5750 5749 5748 5747 5746 5745 5744 5743
5843 5826 5804 5802 5820 5844 5852 5851 5847 5835 5832 5835 5831 5814 5807 5823 5833 5829 5824 5818 5808 5800 5790 5782 5778 5775 5772 5770 5769 5768 5766 5764 5763 5761 5759 5758 5756 5754 5752 5751 5749 5748 5748 5746 5745 5744 5743 5743 5742
5831 5825 5801 5801 5822 5847 5855 5856 5849 5838 5834 5836 5831 5815 5808 5825 5826 5824 5822 5816 5809 5799 5788 5779 5775 5772 5770 5768 5766 5765 5764 5762 5760 5759 5757 5756 5754 5752 5751 5749 5748 5747 5746 5745 5744 5743 5742 5741 5741
5823 5816 5807 5817 5830 5840 5851 5860 5849 5840 5833 5834 5836 5813 5805 5817 5823 5824 5820 5814 5807 5798 5787 5778 5773 5769 5766 5764 5763 5762 5761 5759 5758 5756 5755 5754 5752 5751 5749 5748 5746 5745 5744 5743 5742 5742 5741 5740 5740
5840 5823 5812 5825 5834 5839 5857 5860 5856 5846 5839 5848 5841 5809 5799 5811 5823 5821 5815 5808 5801 5794 5785 5778 5773 5768 5765 5762 5760 5759 5757 5757 5755 5754 5753 5752 5751 5749 5748 5746 5745 5744 5743 5742 5741 5741 5740 5740 5740
5845 5816 5807 5823 5837 5844 5859 5853 5856 5861 5849 5843 5836 5823 5819 5824 5822 5813 5805 5799 5792 5788 5782 5778 5773 5768 5765 5761 5758 5756 5755 5754 5753 5752 5751 5751 5750 5749 5747 5745 5744 5743 5742 5741 5740 5740 5739 5739 5739
5836 5813 5822 5848 5856 5853 5855 5852 5853 5849 5838 5830 5826 5824 5822 5820 5814 5805 5797 5790 5785 5780 5779 5776 5772 5768 5766 5763 5757 5755 5753 5752 5752 5752 5751 5751 5750 5749 5748 5744 5743 5742 5741 5741 5740 5740 5739 5739 5739
5838 5828 5843 5855 5863 5860 5853 5853 5858 5844 5830 5831 5822 5818 5819 5815 5807 5800 5795 5790 5785 5781 5777 5774 5771 5767 5765 5761 5756 5755 5754 5751 5752 5751 5751 5751 5750 5749 5746 5744 5742 5741 5741 5741 5740 5740 5740 5741 5740
5838 5842 5851 5855 5862 5857 5852 5853 5849 5844 5838 5845 5839 5829 5820 5811 5804 5797 5791 5787 5783 5778 5774 5771 5768 5764 5761 5758 5756 5754 5754 5751 5751 5750 5750 5750 5750 5749 5748 5746 5744 5743 5743 5743 5742 5742 5742 5742 5741
5838 5842 5852 5858 5859 5859 5855 5850 5846 5839 5846 5848 5840 5829 5817 5808 5802 5797 5792 5785 5780 5773 5771 5767 5763 5759 5757 5755 5753 5753 5752 5751 5750 5749 5749 5749 5749 5748 5747 5746 5745 5745 5744 5743 5743 5742 5742 5742 5741
5842 5848 5851 5854 5855 5857 5850 5848 5840 5830 5842 5841 5833 5822 5815 5807 5800 5791 5785 5779 5774 5770 5766 5762 5757 5753 5751 5750 5749 5749 5750 5749 5749 5748 5748 5748 5748 5747 5746 5745 5745 5744 5744 5743 5742 5742 5741 5741 5740
5846 5836 5838 5845 5851 5856 5851 5832 5831 5831 5838 5833 5827 5819 5812 5804 5797 5789 5784 5777 5771 5767 5763 5757 5753 5749 5747 5746 5746 5747 5748 5748 5747 5747 5747 5747 5747 5746 5745 5744 5743 5743 5743 5742 5742 5740 5740 5740 5740
5833 5824 5815 5836 5849 5856 5841 5816 5832 5839 5837 5829 5823 5814 5806 5800 5795 5789 5782 5775 5770 5764 5759 5754 5750 5745 5743 5743 5743 5744 5746 5746 5746 5745 5745 5745 5744 5744 5743 5743 5743 5742 5742 5741 5741 5740 5739 5738 5738
5815 5808 5813 5831 5850 5853 5842 5824 5836 5844 5839 5827 5820 5811 5801 5794 5790 5785 5779 5772 5766 5761 5756 5751 5747 5743 5740 5741 5740 5741 5744 5744 5744 5744 5743 5743 5743 5743 5742 5742 5741 5741 5742 5741 5741 5740 5739 5736 5736
5805 5814 5819 5824 5845 5847 5836 5831 5839 5844 5838 5828 5819 5810 5800 5791 5785 5782 5776 5770 5763 5758 5754 5749 5744 5740 5738 5738 5737 5738 5741 5742 5743 5742 5742 5742 5742 5742 5742 5741 5741 5741 5741 5739 5739 5737 5737 5736 5735
5821 5819 5818 5830 5849 5839 5832 5832 5836 5840 5835 5825 5817 5809 5799 5791 5787 5781 5774 5768 5760 5755 5751 5746 5740 5738 5736 5734 5733 5733 5734 5737 5739 5739 5739 5740 5741 5740 5741 5741 5740 5740 5739 5739 5738 5737 5735 5734 5736
5820 5813 5816 5830 5844 5837 5830 5829 5835 5832 5829 5824 5817 5810 5801 5792 5784 5778 5772 5765 5758 5752 5749 5744 5740 5737 5734 5733 5734 5734 5734 5735 5737 5738 5737 5738 5739 5739 5740 5740 5739 5739 5738 5738 5737 5735 5733 5734 5736
5814 5812 5814 5819 5830 5835 5825 5813 5816 5825 5825 5821 5820 5814 5807 5795 5784 5777 5771 5765 5759 5752 5748 5745 5740 5737 5735 5734 5733 5733 5732 5732 5733 5733 5735 5737 5738 5738 5739 5739 5739 5738 5738 5736 5736 5735 5732 5731 5734
5804 5824 5823 5819 5811 5807 5811 5785 5802 5810 5806 5806 5809 5810 5805 5799 5788 5778 5771 5765 5759 5754 5751 5746 5741 5738 5736 5734 5733 5731 5729 5728 5731 5732 5733 5735 5736 5737 5737 5737 5737 5737 5738 5736 5735 5735 5735 5732 5730
5815 5830 5825 5818 5809 5799 5801 5787 5797 5806 5795 5796 5807 5809 5805 5801 5792 5781 5774 5767 5761 5756 5751 5746 5741 5737 5736 5734 5733 5732 5730 5731 5732 5732 5731 5732 5734 5736 5736 5736 5735 5735 5736 5736 5735 5735 5734 5733 5731
5826 5820 5816 5811 5800 5773 5787 5781 5786 5803 5803 5806 5813 5813 5807 5802 5793 5783 5776 5768 5761 5756 5750 5745 5740 5736 5735 5733 5732 5731 5730 5731 5729 5728 5728 5729 5731 5733 5734 5734 5734 5734 5734 5734 5733 5733 5732 5731 5731
5819 5796 5776 5771 5765 5761 5775 5772 5788 5816 5825 5826 5820 5815 5810 5803 5792 5782 5774 5766 5760 5755 5750 5745 5739 5735 5734 5733 5731 5731 5731 5730 5729 5728 5728 5729 5730 5731 5732 5733 5732 5732 5732 5731 5732 5730 5730 5730 5729
5811 5802 5773 5757 5757 5754 5754 5748 5780 5824 5829 5833 5829 5821 5812 5802 5794 5783 5775 5768 5761 5755 5751 5746 5740 5736 5734 5732 5731 5732 5731 5730 5730 5730 5730 5730 5731 5732 5732 5731 5730 5730 5730 5730 5729 5729 5728 5728 5727
5802 5803 5814 5794 5781 5768 5763 5766 5785 5814 5817 5824 5822 5816 5808 5802 5795 5785 5777 5769 5763 5757 5752 5747 5741 5737 5734 5733 5731 5730 5731 5730 5730 5730 5731 5731 5732 5732 5730 5730 5729 5728 5728 5728 5727 5726 5726 5726 5725
5819 5814 5804 5789 5767 5760 5769 5763 5763 5777 5799 5811 5813 5811 5808 5804 5796 5788 5780 5772 5765 5759 5753 5748 5743 5738 5735 5733 5731 5730 5730 5730 5730 5730 5730 5731 5731 5730 5729 5728 5727 5726 5725 5725 5724 5723 5723 5722 5722
5808 5802 5798 5795 5792 5768 5754 5755 5781 5781 5792 5801 5810 5813 5810 5805 5798 5790 5782 5775 5768 5761 5754 5748 5743 5738 5735 5733 5731 5730 5729 5729 5729 5729 5729 5729 5729 5728 5726 5726 5725 5724 5723 5722 5721 5720 5720 5718 5718
5818 5809 5801 5778 5777 5784 5772 5764 5796 5792 5797 5804 5811 5815 5813 5808 5801 5793 5784 5776 5768 5761 5756 5750 5745 5740 5736 5734 5731 5730 5729 5728 5727 5727 5727 5727 5726 5726 5724 5724 5722 5721 5720 5719 5718 5716 5717 5715 5714